DW6927 Weather Reports


time (UTC)temp
C
wind
direction
speed
KPH
gust
KPH
rain 1hr
cm
rain 24hr
cm
rain mn
cm
humidity
%
barometer
mb
20260505221551 22 336 1.6 12.9 0.00 0.00 0.00 41 1013.3
20260505221052 22 360 4.8 12.9 0.00 0.00 0.00 40 1013.1
20260505220549 22 46 3.2 8.0 0.00 0.00 0.00 39 1013.1
20260505220057 22 331 1.6 8.0 0.00 0.00 0.00 40 1013.0
20260505215553 22 21 4.8 8.0 0.00 0.00 0.00 39 1012.9
20260505215053 22 313 3.2 14.5 0.00 0.00 0.00 39 1012.8
20260505214557 22 5 1.6 14.5 0.00 0.00 0.00 38 1013.0
20260505214053 23 45 4.8 14.5 0.00 0.00 0.00 38 1012.8
20260505213553 23 9 3.2 8.0 0.00 0.00 0.00 37 1012.4
20260505213056 23 360 3.2 9.7 0.00 0.00 0.00 39 1012.3
20260505212554 23 67 3.2 14.5 0.00 0.00 0.00 37 1012.4
20260505212054 23 5 3.2 14.5 0.00 0.00 0.00 39 1012.3
20260505211552 23 34 3.2 9.7 0.00 0.00 0.00 43 1012.4
20260505211053 23 92 1.6 12.9 0.00 0.00 0.00 41 1012.4
20260505210553 24 318 3.2 12.9 0.00 0.00 0.00 43 1012.5
20260505210055 24 313 3.2 12.9 0.00 0.00 0.00 42 1012.2
20260505205554 24 0 1.6 9.7 0.00 0.00 0.00 42 1012.3
20260505205054 24 332 4.8 9.7 0.00 0.00 0.00 41 1012.4
20260505204554 24 317 1.6 4.8 0.00 0.00 0.00 42 1012.7
20260505204054 24 352 1.6 6.4 0.00 0.00 0.00 41 1012.5
20260505203554 24 125 1.6 8.0 0.00 0.00 0.00 40 1012.5
20260505203117 23 0 3.2 11.3 0.00 0.00 0.00 40 1012.7
20260505202557 23 232 3.2 16.1 0.00 0.00 0.00 39 1012.5
20260505202056 23 19 3.2 16.1 0.00 0.00 0.00 39 1012.6
20260505201602 23 338 3.2 12.9 0.00 0.00 0.00 37 1012.7
20260505201054 24 23 4.8 12.9 0.00 0.00 0.00 37 1012.7
20260505200554 24 136 3.2 8.0 0.00 0.00 0.00 39 1012.6
20260505200057 23 5 3.2 11.3 0.00 0.00 0.00 43 1012.7
20260505195555 23 17 3.2 12.9 0.00 0.00 0.00 42 1012.8
20260505195056 23 16 3.2 12.9 0.00 0.00 0.00 43 1012.8
20260505194554 23 38 4.8 12.9 0.00 0.00 0.00 42 1012.8
20260505194054 23 34 4.8 19.3 0.00 0.00 0.00 44 1013.1
20260505193553 24 329 4.8 19.3 0.00 0.00 0.00 42 1013.2
20260505193054 24 22 4.8 9.7 0.00 0.00 0.00 43 1013.0
20260505192557 24 13 1.6 8.0 0.00 0.00 0.00 45 1013.1
20260505192053 24 360 1.6 9.7 0.00 0.00 0.00 42 1013.0
20260505191608 24 302 1.6 9.7 0.00 0.00 0.00 43 1013.5
20260505191055 24 342 3.2 9.7 0.00 0.00 0.00 41 1013.6
20260505190554 24 0 1.6 6.4 0.00 0.00 0.00 42 1013.9
20260505190054 23 17 1.6 4.8 0.00 0.00 0.00 43 1014.0
20260505185554 23 21 1.6 9.7 0.00 0.00 0.00 41 1013.8
20260505185054 23 345 3.2 9.7 0.00 0.00 0.00 41 1014.0
20260505184553 23 5 3.2 6.4 0.00 0.00 0.00 41 1013.8
20260505184055 23 360 1.6 14.5 0.00 0.00 0.00 42 1013.9
20260505183555 23 44 3.2 14.5 0.00 0.00 0.00 38 1014.0
20260505183058 23 338 4.8 14.5 0.00 0.00 0.00 38 1014.0
20260505182633 23 355 3.2 14.5 0.00 0.00 0.00 39 1014.2
20260505182053 23 17 3.2 12.9 0.00 0.00 0.00 38 1014.3
20260505181555 23 250 4.8 12.9 0.00 0.00 0.00 38 1014.2
20260505181054 23 326 4.8 8.0 0.00 0.00 0.00 39 1014.3
20260505180553 23 43 3.2 8.0 0.00 0.00 0.00 40 1014.4
20260505180100 23 20 1.6 12.9 0.00 0.00 0.00 40 1014.6
20260505175554 23 53 4.8 12.9 0.00 0.00 0.00 37 1014.6
20260505175054 23 323 4.8 8.0 0.00 0.00 0.00 39 1014.6
20260505174555 23 352 3.2 11.3 0.00 0.00 0.00 39 1014.7
20260505174054 22 330 3.2 11.3 0.00 0.00 0.00 40 1014.9
20260505173554 23 59 4.8 9.7 0.00 0.00 0.00 39 1015.0
20260505173059 22 345 3.2 8.0 0.00 0.00 0.00 41 1015.0
20260505172553 22 65 1.6 6.4 0.00 0.00 0.00 40 1015.2
20260505172053 22 22 1.6 12.9 0.00 0.00 0.00 41 1015.3
20260505171557 22 11 4.8 12.9 0.00 0.00 0.00 39 1015.2
20260505171054 22 313 4.8 9.7 0.00 0.00 0.00 37 1015.3
20260505170554 22 266 1.6 11.3 0.00 0.00 0.00 39 1015.3
20260505170109 22 340 4.8 11.3 0.00 0.00 0.00 40 1015.1
20260505165553 22 163 3.2 11.3 0.00 0.00 0.00 47 1015.3
20260505165057 22 323 3.2 12.9 0.00 0.00 0.00 48 1015.1
20260505164557 22 9 1.6 12.9 0.00 0.00 0.00 48 1015.2
20260505164053 22 338 3.2 12.9 0.00 0.00 0.00 50 1015.4
20260505163553 22 157 1.6 12.9 0.00 0.00 0.00 48 1015.3
20260505163053 22 52 3.2 11.3 0.00 0.00 0.00 47 1015.5
20260505162553 22 0 1.6 6.4 0.00 0.00 0.00 49 1015.5
20260505162057 22 313 1.6 6.4 0.00 0.00 0.00 49 1015.5
20260505161614 21 321 1.6 16.1 0.00 0.00 0.00 50 1015.6
20260505161055 21 352 3.2 16.1 0.00 0.00 0.00 47 1015.5
20260505160555 21 315 3.2 16.1 0.00 0.00 0.00 47 1015.6
20260505153106 21 352 4.8 16.1 0.00 0.00 0.00 49 1015.5
20260505152554 21 341 4.8 14.5 0.00 0.00 0.00 47 1015.5
20260505152053 21 333 4.8 12.9 0.00 0.00 0.00 46 1015.7
20260505151604 21 57 3.2 8.0 0.00 0.00 0.00 49 1015.6
20260505151053 21 355 1.6 6.4 0.00 0.00 0.00 54 1015.8
20260505150551 21 88 1.6 6.4 0.00 0.00 0.00 53 1015.8
20260505140554 17 0 0.0 0.0 0.00 0.00 0.00 75 1016.0
20260505130110 12 0 0.0 0.0 0.00 0.00 0.00 86 1015.3
20260505124608 11 0 0.0 0.0 0.00 0.00 0.00 87 1015.3
20260505124055 11 0 0.0 0.0 0.00 0.00 0.00 87 1015.3
20260505123553 11 0 0.0 0.0 0.00 0.00 0.00 88 1015.2
20260505123106 11 0 0.0 0.0 0.00 0.00 0.00 90 1015.2
20260505122553 10 0 0.0 0.0 0.00 0.00 0.00 92 1015.2
20260505122053 10 0 0.0 0.0 0.00 0.00 0.00 91 1015.1
20260505121620 10 0 0.0 0.0 0.00 0.00 0.00 92 1014.9
20260505121054 9 0 0.0 0.0 0.00 0.00 0.00 91 1015.1
20260505120620 8 0 0.0 0.0 0.00 0.00 0.00 91 1015.1
20260505120056 8 0 0.0 0.0 0.00 0.00 0.00 91 1015.0
20260505115557 8 0 0.0 0.0 0.00 0.00 0.00 90 1014.9
20260505115057 8 0 0.0 0.0 0.00 0.00 0.00 90 1014.9
20260505114555 8 0 0.0 0.0 0.00 0.00 0.00 89 1014.9
20260505114054 8 0 0.0 0.0 0.00 0.00 0.00 90 1014.7
20260505113554 8 0 0.0 0.0 0.00 0.00 0.00 89 1014.4
20260505113053 8 0 0.0 0.0 0.00 0.00 0.00 89 1014.6
20260505112554 8 0 0.0 0.0 0.00 0.00 0.00 89 1014.5
20260505112054 8 0 0.0 0.0 0.00 0.00 0.00 89 1014.6
20260505111553 8 0 0.0 0.0 0.00 0.00 0.00 89 1014.5
20260505111054 8 0 0.0 0.0 0.00 0.00 0.00 88 1014.5
20260505110555 8 0 0.0 0.0 0.00 0.00 0.00 88 1014.4
20260505102054 8 0 0.0 0.0 0.00 0.00 0.00 86 1014.3
20260505101557 8 0 0.0 0.0 0.00 0.00 0.00 86 1014.3
20260505101054 8 0 0.0 0.0 0.00 0.00 0.00 86 1014.4
20260505100554 8 0 0.0 0.0 0.00 0.00 0.00 85 1014.3
20260505100101 8 0 0.0 0.0 0.00 0.00 0.00 85 1014.2
20260505095555 8 0 0.0 0.0 0.00 0.00 0.00 84 1014.3
20260505095053 8 0 0.0 0.0 0.00 0.00 0.00 83 1014.3
20260505094555 9 0 0.0 0.0 0.00 0.00 0.00 83 1014.3
20260505094053 9 0 0.0 0.0 0.00 0.00 0.00 82 1014.2
20260505093554 9 0 0.0 0.0 0.00 0.00 0.00 81 1014.1
20260505093054 10 0 0.0 0.0 0.00 0.00 0.00 80 1014.2
20260505092556 10 0 0.0 0.0 0.00 0.00 0.00 80 1014.2
20260505092054 10 0 0.0 0.0 0.00 0.00 0.00 79 1014.2
20260505091552 10 0 0.0 0.0 0.00 0.00 0.00 78 1014.3
20260505091057 11 0 0.0 0.0 0.00 0.00 0.00 77 1014.3
20260505090554 11 0 0.0 0.0 0.00 0.00 0.00 76 1014.3
20260505090104 11 0 0.0 0.0 0.00 0.00 0.00 76 1014.3
20260505085550 11 0 0.0 0.0 0.00 0.00 0.00 76 1014.4
20260505085053 11 0 0.0 0.0 0.00 0.00 0.00 77 1014.3
20260505084554 11 0 0.0 0.0 0.00 0.00 0.00 77 1014.3
20260505084053 11 0 0.0 0.0 0.00 0.00 0.00 77 1014.5
20260505083553 10 0 0.0 0.0 0.00 0.00 0.00 79 1014.3
20260505083100 11 0 0.0 0.0 0.00 0.00 0.00 78 1014.3
20260505082553 11 0 0.0 0.0 0.00 0.00 0.00 77 1014.4
20260505082054 11 0 0.0 0.0 0.00 0.00 0.00 77 1014.4
20260505081557 11 0 0.0 0.0 0.00 0.00 0.00 76 1014.4
20260505081056 11 0 0.0 0.0 0.00 0.00 0.00 77 1014.3
20260505080556 11 0 0.0 0.0 0.00 0.00 0.00 75 1014.4
20260505080057 11 0 0.0 0.0 0.00 0.00 0.00 75 1014.4
20260505075553 11 0 0.0 0.0 0.00 0.00 0.00 73 1014.6
20260505075053 12 0 0.0 0.0 0.00 0.00 0.00 72 1014.4
20260505074555 12 0 0.0 0.0 0.00 0.00 0.00 72 1014.5
20260505074053 12 0 0.0 0.0 0.00 0.00 0.00 73 1014.5
20260505073554 12 0 0.0 0.0 0.00 0.00 0.00 72 1014.4
20260505073057 12 0 0.0 0.0 0.00 0.00 0.00 72 1014.4
20260505072556 12 0 0.0 0.0 0.00 0.00 0.00 70 1014.5
20260505072050 12 0 0.0 0.0 0.00 0.00 0.00 70 1014.5
20260505071555 12 0 0.0 0.0 0.00 0.00 0.00 69 1014.3
20260505071054 12 0 0.0 0.0 0.00 0.00 0.00 69 1014.4
20260505070554 12 0 0.0 0.0 0.00 0.00 0.00 70 1014.5
20260505070055 12 0 0.0 0.0 0.00 0.00 0.00 70 1014.3
20260505065554 12 0 0.0 0.0 0.00 0.00 0.00 70 1014.3
20260505065054 12 0 0.0 0.0 0.00 0.00 0.00 70 1014.5
20260505064557 12 0 0.0 0.0 0.00 0.00 0.00 70 1014.4
20260505064054 12 0 0.0 0.0 0.00 0.00 0.00 69 1014.3
20260505063556 12 0 0.0 0.0 0.00 0.00 0.00 69 1014.5
20260505063056 12 0 0.0 0.0 0.00 0.00 0.00 69 1014.2
20260505062553 13 0 0.0 0.0 0.00 0.00 0.00 68 1014.4
20260505062053 13 0 0.0 0.0 0.00 0.00 0.00 69 1014.4
20260505061555 13 0 0.0 0.0 0.00 0.00 0.00 69 1014.6
20260505061050 13 0 0.0 0.0 0.00 0.00 0.00 69 1014.5
20260505060554 13 0 0.0 0.0 0.00 0.00 0.00 67 1014.6
20260505060055 13 0 0.0 0.0 0.00 0.00 0.00 68 1014.5
20260505055554 13 0 0.0 0.0 0.00 0.00 0.00 68 1014.5
20260505055054 13 0 0.0 3.2 0.00 0.00 0.00 67 1014.6
20260505054553 13 0 0.0 3.2 0.00 0.00 0.00 67 1014.6
20260505054054 13 150 0.0 3.2 0.00 0.00 0.00 67 1014.7
20260505053554 13 147 1.6 3.2 0.00 0.00 0.00 68 1014.6
20260505053102 13 81 0.0 3.2 0.00 0.00 0.00 68 1014.5
20260505052555 13 0 0.0 1.6 0.00 0.00 0.00 69 1014.7
20260505052053 13 0 0.0 1.6 0.00 0.00 0.00 70 1014.9
20260505051552 13 0 0.0 1.6 0.00 0.00 0.00 72 1014.8
20260505051053 13 0 0.0 1.6 0.00 0.00 0.00 73 1014.7
20260505050553 13 81 0.0 1.6 0.00 0.00 0.00 73 1014.6
20260505041551 13 0 0.0 0.0 0.00 0.00 0.00 72 1014.5
20260505041053 13 0 0.0 0.0 0.00 0.00 0.00 72 1014.4
20260505040555 13 0 0.0 0.0 0.00 0.00 0.00 71 1014.6
20260505040056 13 0 0.0 0.0 0.00 0.00 0.00 71 1014.4
20260505035555 13 0 0.0 0.0 0.00 0.00 0.00 70 1014.4
20260505035053 13 0 0.0 0.0 0.00 0.00 0.00 70 1014.4
20260505034555 14 0 0.0 0.0 0.00 0.00 0.00 70 1014.5
20260505034054 14 0 0.0 0.0 0.00 0.00 0.00 69 1014.6
20260505033553 14 0 0.0 0.0 0.00 0.00 0.00 69 1014.5
20260505033111 14 0 0.0 0.0 0.00 0.00 0.00 69 1014.7
20260505032553 14 0 0.0 0.0 0.00 0.00 0.00 68 1014.7
20260505032053 14 0 0.0 0.0 0.00 0.00 0.00 68 1014.7
20260505031553 14 0 0.0 0.0 0.00 0.00 0.00 68 1014.8
20260505031056 14 0 0.0 0.0 0.00 0.00 0.00 68 1014.7
20260505030555 14 0 0.0 0.0 0.00 0.00 0.00 67 1014.7
20260505030052 14 0 0.0 0.0 0.00 0.00 0.00 67 1014.8
20260505025554 15 0 0.0 0.0 0.00 0.00 0.00 67 1014.6
20260505025053 15 0 0.0 0.0 0.00 0.00 0.00 68 1014.6
20260505024600 15 0 0.0 0.0 0.00 0.00 0.00 68 1014.7
20260505024053 15 0 0.0 0.0 0.00 0.00 0.00 67 1014.7
20260505023553 15 0 0.0 0.0 0.00 0.00 0.00 67 1014.6
20260505023105 15 0 0.0 0.0 0.00 0.00 0.00 67 1014.6
20260505022553 15 0 0.0 0.0 0.00 0.00 0.00 66 1014.6
20260505022057 15 0 0.0 0.0 0.00 0.00 0.00 67 1014.6
20260505021555 15 0 0.0 0.0 0.00 0.00 0.00 66 1014.4
20260505021053 15 0 0.0 0.0 0.00 0.00 0.00 65 1014.5
20260505020553 15 0 0.0 0.0 0.00 0.00 0.00 65 1014.4
20260505020055 15 0 0.0 0.0 0.00 0.00 0.00 65 1014.5
20260505015555 16 0 0.0 0.0 0.00 0.00 0.00 66 1014.4
20260505015053 16 0 0.0 0.0 0.00 0.00 0.00 65 1014.3
20260505014554 16 0 0.0 0.0 0.00 0.00 0.00 65 1014.3
20260505014052 16 0 0.0 0.0 0.00 0.00 0.00 64 1014.3
20260505013553 16 0 0.0 0.0 0.00 0.00 0.00 64 1014.2
20260505013054 16 0 0.0 0.0 0.00 0.00 0.00 64 1014.3
20260505012553 16 0 0.0 0.0 0.00 0.00 0.00 65 1014.1
20260505012053 16 0 0.0 0.0 0.00 0.00 0.00 65 1014.1
20260505011600 16 0 0.0 0.0 0.00 0.00 0.00 65 1014.0
20260505011054 17 0 0.0 0.0 0.00 0.00 0.00 64 1014.1
20260505010553 17 0 0.0 0.0 0.00 0.00 0.00 65 1014.0
20260505005553 17 0 0.0 0.0 0.00 0.00 0.00 62 1014.0
20260505005053 17 0 0.0 0.0 0.00 0.00 0.00 62 1014.0
20260505004555 18 0 0.0 1.6 0.00 0.00 0.00 61 1014.0
20260505004055 18 0 0.0 1.6 0.00 0.00 0.00 60 1013.9
20260505003554 18 0 0.0 1.6 0.00 0.00 0.00 59 1013.8
20260505003102 18 0 0.0 1.6 0.00 0.00 0.00 58 1013.9
20260505002552 19 0 0.0 1.6 0.00 0.00 0.00 57 1013.8
20260505002050 19 0 0.0 3.2 0.00 0.00 0.00 55 1013.8
20260505001554 20 0 0.0 3.2 0.00 0.00 0.00 55 1013.8
20260505001056 20 0 0.0 3.2 0.00 0.00 0.00 54 1013.8
20260505000556 20 0 0.0 6.4 0.00 0.00 0.00 53 1013.7
20260505000059 20 0 0.0 6.4 0.00 0.00 0.00 52 1013.7
20260504235554 20 0 1.6 6.4 0.00 0.00 0.00 51 1013.7
20260504235053 21 40 0.0 3.2 0.00 0.00 0.00 51 1013.6
20260504234616 21 0 0.0 8.0 0.00 0.00 0.00 51 1013.7
20260504234054 21 0 0.0 8.0 0.00 0.00 0.00 50 1013.6
20260504233553 21 34 0.0 6.4 0.00 0.00 0.00 49 1013.6
20260504233058 21 19 0.0 4.8 0.00 0.00 0.00 51 1013.5
20260504232553 21 0 1.6 4.8 0.00 0.00 0.00 49 1013.6
20260504232052 21 0 0.0 3.2 0.00 0.00 0.00 49 1013.5
20260504231606 21 0 0.0 6.4 0.00 0.00 0.00 47 1013.2
20260504231054 21 0 0.0 6.4 0.00 0.00 0.00 47 1013.4
20260504230557 21 0 0.0 6.4 0.00 0.00 0.00 46 1013.4
20260504230052 21 329 1.6 6.4 0.00 0.00 0.00 45 1013.3
20260504225554 21 333 1.6 6.4 0.00 0.00 0.00 44 1013.3
20260504225053 21 0 1.6 4.8 0.00 0.00 0.00 43 1013.3
20260504224600 22 352 0.0 9.7 0.00 0.00 0.00 43 1013.2
20260504224053 22 61 1.6 9.7 0.00 0.00 0.00 42 1013.5
20260504223553 22 309 1.6 9.7 0.00 0.00 0.00 41 1013.5
20260504223052 22 0 3.2 9.7 0.00 0.00 0.00 42 1013.5
20260504222553 22 0 0.0 9.7 0.00 0.00 0.00 46 1013.4
20260504222053 22 13 0.0 8.0 0.00 0.00 0.00 46 1013.6